Weather Roundup
Issued by NWS

Home | Current Version | Previous Version | Text Only | Print | Product List | Glossary On
Versions: 1 2 3 4 5 6 7 8 9 10 11 12 13 14 15 16 17 18 19 20 21 22 23 24 25 26 27 28 29 30 31 32 33 34 35 36 37 38 39 40 41 42 43 44 45 46 47 48 49 50
000
NZUS93 KARX 172010
HRRWXR

CURRENT HOURLY OBSERVATIONS ACROSS
MUCH OF THE UPPER MISSISSIPPI VALLEY
NATIONAL WEATHER SERVICE LA CROSSE WI
300 PM CDT WED SEP 17 2014


...SOUTHEAST MINNESOTA...


CITY           SKY/WX    TMP DP  RH WIND       PRES   REMARKS
ROCHESTER      MOSUNNY   70  50  49 VRB5      29.97F
ROCHESTER/MAYO MOCLDY    73  45  35 S5        29.96R
WINONA         MOSUNNY   72  52  49 CALM      29.95S
AUSTIN           N/A     70  52  52 CALM      29.95S
ALBERT LEA     SUNNY     72  52  49 CALM      29.95S
DODGE CENTER   MOSUNNY   72  52  49 SE5       29.96S
PRESTON        MOSUNNY   67  56  66 CALM      29.97F
OWATONNA       SUNNY     73  52  46 CALM      29.95S
FARIBAULT      SUNNY     75  46  35 NE3       29.95S
$$

...ELSEWHERE IN MINNESOTA...


CITY           SKY/WX    TMP DP  RH WIND       PRES   REMARKS
MINNEAPOLIS    MOSUNNY   75  52  44 VRB5      29.94S
INTNL FALLS    CLOUDY    53  41  63 NE9       30.05R
DULUTH         MOSUNNY   56  47  71 E17       29.99R
RED WING       SUNNY     73  50  43 SW5       29.93S
REDWOOD FALLS  SUNNY     76  53  44 VRB6      29.93S
MANKATO        SUNNY     73  52  46 SE6       29.94S
WORTHINGTON    MOSUNNY   73  55  53 SE3       29.93F
FAIRMONT       MOSUNNY   75  54  46 CALM      29.94S
$$

...SOUTHWEST WISCONSIN...


CITY           SKY/WX    TMP DP  RH WIND       PRES   REMARKS
LA CROSSE      PTSUNNY   71  52  50 S10       29.95F
PRAIRIE DU CHI SUNNY     69  47  45 CALM      29.97F
BOSCOBEL       PTSUNNY   71  49  45 VRB6      29.97F
LONE ROCK      MOSUNNY   72  48  42 W8        29.97F
PLATTEVILLE    SUNNY     68  49  50 CALM      29.99F
FORT MC COY    MOSUNNY   70  48  46 SW3       29.97S
CAMP DOUGLAS   MOSUNNY   70  52  52 VRB2      29.97F
VIROQUA        MOCLDY    68  49  49 SW5       29.98F
WIS DELLS      PTSUNNY   68  46  45 SW6       29.97F
$$

...ELSEWHERE IN WISCONSIN...


CITY           SKY/WX    TMP DP  RH WIND       PRES   REMARKS
MILWAUKEE      PTSUNNY   69  44  40 W8        29.98F
MADISON        MOSUNNY   68  47  46 VRB6      29.98F
GREEN BAY      PTSUNNY   68  49  50 SW10      29.95S
EAU CLAIRE     PTSUNNY   71  50  47 S5        29.95S
BLACK RVR FLS  FAIR      70  47  43 SW6       29.96S
MEDFORD        MOSUNNY   65  49  55 NW5       29.96S
WAUSAU         CLOUDY    67  48  50 NW10      29.94S
WIS RAPIDS     SUNNY     70  47  43 W3        29.98S
MARSHFIELD     MOSUNNY   70  51  51 W6        29.96F
RICE LAKE      PTSUNNY   71  49  45 N8        29.97S
$$

...NORTHEAST IOWA...


CITY           SKY/WX    TMP DP  RH WIND       PRES   REMARKS
WATERLOO       SUNNY     71  49  45 VRB6      29.95F
DUBUQUE        SUNNY     68  51  54 MISG      29.99F
DECORAH        MOSUNNY   70  52  52 S6        29.96F
MASON CITY     SUNNY     73  51  46 VRB5      29.96S
CHARLES CITY   SUNNY     70  46  43 VRB6      29.97S
OELWEIN        SUNNY     70  48  46 VRB5G12   29.97F
$$

...ELSEWHERE IN IOWA...


CITY           SKY/WX    TMP DP  RH WIND       PRES   REMARKS
DES MOINES     PTSUNNY   75  57  53 SE6       29.93F
IOWA CITY      MOSUNNY   70  57  63 VRB3      29.97F
FORT DODGE     MOSUNNY   73  52  46 SE5       29.94F
MARSHALLTOWN   SUNNY     71  54  54 S7        29.95F
CEDAR RAPIDS   MOSUNNY   69  56  62 CALM      29.96F
$$

...NORTHERN ILLINOIS...


CITY           SKY/WX    TMP DP  RH WIND       PRES   REMARKS
CHICAGO-OHARE  MOSUNNY   68  44  42 SW8       29.99F
DUPAGE         SUNNY     70  47  43 VRB3      29.99F
CHICAGO-MIDWAY MOSUNNY   70  47  43 NW7       29.99F
MOLINE         SUNNY     69  51  52 E3        29.98F
ROCKFORD       MOSUNNY   70  49  47 NW7       30.00F
STERLING       MOSUNNY   72  52  49 CALM      29.98F
PEORIA         CLOUDY    67  51  56 SW6       29.99F
$$

NOTE: "FAIR" INDICATES FEW OR NO CLOUDS BELOW 12,000 FEET WITH NO
SIGNIFICANT WEATHER AND/OR OBSTRUCTIONS TO VISIBILITY. WIND
SPEEDS ARE IN MILES-PER-HOUR.



USA.gov is the U.S. government's official web portal to all federal, state and local government web resources and services.